Date String (YYYY-MM-DD hh:mm:ss) UTC,Instrument flags,Ambient pressure (hPa),Sample flow (lpm),Bypass flow (lpm),Sample temperature (°C),Ambient temperature (°C),ASC tube jacket temperature (°C),LED temperature (°C),Box temperature (°C),Sample RH (%),Span deviation,Mass concentration (μg/m³),Mass concentration (μg/m³),Mass concentration (μg/m³)
DateTimeUTC,F1_M11,P_M11,Q1_M11,Q2_M11,T1_M11,T2_M11,T3_M11,T4_M11,T5_M11,U1_M11,ZSPAN_M11,X0_M11,X2_M11,X1_M11
2022-11-26 00:00:00,,0829.1,5.01,0.00,28.3,26.8,00.0,37.2,30.1,10.0,0000.0,0004.52,0002.23,0001.58
2022-11-26 00:01:00,,0829.1,4.97,0.00,28.3,26.8,00.0,37.2,30.1,09.9,0000.0,0004.70,0002.29,0001.61
2022-11-26 00:02:00,,0829.1,5.01,0.00,28.3,26.8,00.0,37.2,30.0,09.9,0000.0,0004.84,0002.37,0001.64
2022-11-26 00:03:00,,0829.1,5.01,0.00,28.3,26.8,00.0,37.2,30.0,09.9,0000.0,0004.78,0002.37,0001.67
2022-11-26 00:04:00,,0828.8,5.01,0.00,28.3,26.8,00.0,37.2,30.0,09.9,0000.0,0004.77,0002.41,0001.72
2022-11-26 00:05:00,,0829.0,5.00,0.00,28.3,26.8,00.0,37.2,30.0,09.9,0000.0,0004.84,0002.51,0001.77
2022-11-26 00:06:00,,0829.0,5.01,0.00,28.2,26.8,00.0,37.2,30.0,10.1,0000.0,0006.16,0002.55,0001.80
2022-11-26 00:07:00,,0829.1,4.98,0.00,28.2,26.8,00.0,37.2,30.0,10.2,0000.0,0006.51,0002.53,0001.82
2022-11-26 00:08:00,,0828.8,5.02,0.00,28.2,26.8,00.0,37.2,30.0,10.2,0000.0,0007.14,0002.48,0001.81
2022-11-26 00:09:00,,0828.9,5.00,0.00,28.2,26.7,00.0,37.2,30.0,10.2,0000.0,0007.76,0002.45,0001.79
2022-11-26 00:10:00,,0828.9,4.99,0.00,28.2,26.7,00.0,37.2,29.9,10.2,0000.0,0007.74,0002.43,0001.77
2022-11-26 00:11:00,,0828.9,5.01,0.00,28.2,26.7,00.0,37.2,29.9,10.3,0000.0,0007.64,0002.37,0001.72
2022-11-26 00:12:00,,0829.1,5.00,0.00,28.2,26.7,00.0,37.2,29.9,10.4,0000.0,0007.55,0002.30,0001.66
2022-11-26 00:13:00,,0829.0,5.00,0.00,28.2,26.7,00.0,37.1,29.9,10.5,0000.0,0007.43,0002.19,0001.59
2022-11-26 00:14:00,,0828.9,4.98,0.00,28.1,26.7,00.0,37.1,29.9,10.5,0000.0,0007.41,0002.16,0001.52
2022-11-26 00:15:00,,0829.0,5.01,0.00,28.1,26.7,00.0,37.1,29.9,10.4,0000.0,0007.36,0002.06,0001.42
2022-11-26 00:16:00,,0828.7,5.01,0.00,28.1,26.6,00.0,37.1,29.9,10.4,0000.0,0007.20,0001.93,0001.33
2022-11-26 00:17:00,,0828.6,5.00,0.00,28.1,26.6,00.0,37.1,29.9,10.4,0000.0,0007.00,0001.84,0001.26
2022-11-26 00:18:00,,0828.5,5.00,0.00,28.1,26.6,00.0,37.1,29.9,10.3,0000.0,0006.37,0001.81,0001.22
2022-11-26 00:19:00,,0828.5,5.01,0.00,28.1,26.6,00.0,37.1,29.9,10.4,0000.0,0005.24,0001.76,0001.18
2022-11-26 00:20:00,,0828.5,4.99,0.00,28.1,26.5,00.0,37.1,29.9,10.4,0000.0,0004.14,0001.64,0001.13
2022-11-26 00:21:00,,0828.5,4.99,0.00,28.1,26.5,00.0,37.1,29.8,10.3,0000.0,0003.82,0001.53,0001.08
2022-11-26 00:22:00,,0828.5,5.01,0.00,28.1,26.5,00.0,37.1,29.8,10.3,0000.0,0003.86,0001.52,0001.05
2022-11-26 00:23:00,,0828.5,4.99,0.00,28.1,26.5,00.0,37.1,29.8,10.3,0000.0,0003.80,0001.48,0001.03
2022-11-26 00:24:00,,0828.5,5.01,0.00,28.1,26.5,00.0,37.1,29.8,10.1,0000.0,0003.77,0001.48,0001.03
2022-11-26 00:25:00,,0828.5,4.99,0.00,28.1,26.5,00.0,37.0,29.8,10.3,0000.0,0003.72,0001.45,0001.04
2022-11-26 00:26:00,,0828.5,5.00,0.00,28.0,26.5,00.0,37.0,29.8,10.4,0000.0,0003.58,0001.39,0001.04
2022-11-26 00:27:00,,0828.5,5.01,0.00,28.0,26.5,00.0,37.0,29.8,10.4,0000.0,0003.45,0001.34,0001.03
2022-11-26 00:28:00,,0828.4,5.00,0.00,28.0,26.5,00.0,37.0,29.8,10.3,0000.0,0002.26,0001.33,0001.03
2022-11-26 00:29:00,,0828.4,4.99,0.00,28.0,26.5,00.0,37.0,29.8,10.4,0000.0,0002.28,0001.32,0001.01
2022-11-26 00:30:00,,0828.4,5.01,0.00,28.0,26.4,00.0,37.0,29.8,10.4,0000.0,0002.28,0001.32,0001.00
2022-11-26 00:31:00,,0828.3,5.01,0.00,28.0,26.4,00.0,37.0,29.8,10.4,0000.0,0002.32,0001.30,0000.98
2022-11-26 00:32:00,,0828.3,4.98,0.00,28.0,26.4,00.0,37.0,29.8,10.3,0000.0,0002.21,0001.27,0000.96
2022-11-26 00:33:00,,0828.3,5.01,0.00,28.0,26.4,00.0,37.0,29.7,10.4,0000.0,0002.21,0001.22,0000.95
2022-11-26 00:34:00,,0828.3,5.01,0.00,28.0,26.3,00.0,37.0,29.7,10.4,0000.0,0003.48,0001.22,0000.93
2022-11-26 00:35:00,,0828.3,4.98,0.00,27.9,26.3,00.0,36.9,29.7,10.4,0000.0,0003.28,0001.15,0000.89
2022-11-26 00:36:00,,0828.3,5.01,0.00,27.9,26.3,00.0,36.9,29.6,10.4,0000.0,0003.18,0001.11,0000.87
2022-11-26 00:37:00,,0828.3,5.00,0.00,27.9,26.3,00.0,36.9,29.6,10.3,0000.0,0003.17,0001.10,0000.87
2022-11-26 00:38:00,,0828.3,4.99,0.00,27.9,26.3,00.0,36.9,29.5,10.2,0000.0,0003.17,0001.10,0000.88
2022-11-26 00:39:00,,0828.3,5.01,0.00,27.9,26.3,00.0,36.9,29.6,10.3,0000.0,0003.15,0001.09,0000.87
2022-11-26 00:40:00,,0828.3,5.01,0.00,27.9,26.3,00.0,36.9,29.5,10.2,0000.0,0003.14,0001.09,0000.87
2022-11-26 00:41:00,,0828.3,4.98,0.00,27.8,26.3,00.0,36.9,29.5,10.3,0000.0,0003.25,0001.14,0000.88
2022-11-26 00:42:00,,0828.3,5.00,0.00,27.8,26.3,00.0,36.9,29.6,10.2,0000.0,0003.34,0001.19,0000.89
2022-11-26 00:43:00,,0828.3,5.01,0.00,27.8,26.3,00.0,36.8,29.5,10.2,0000.0,0003.31,0001.18,0000.90
2022-11-26 00:44:00,,0828.3,4.98,0.00,27.8,26.3,00.0,36.8,29.5,10.3,0000.0,0003.22,0001.20,0000.91
2022-11-26 00:45:00,,0828.2,5.01,0.00,27.8,26.3,00.0,36.8,29.6,10.4,0000.0,0002.20,0001.22,0000.93
2022-11-26 00:46:00,,0828.3,4.99,0.00,27.8,26.2,00.0,36.8,29.6,10.4,0000.0,0002.87,0001.29,0000.94
2022-11-26 00:47:00,,0828.3,5.02,0.00,27.8,26.2,00.0,36.8,29.5,10.3,0000.0,0003.14,0001.34,0000.94
2022-11-26 00:48:00,,0828.3,4.99,0.00,27.8,26.2,00.0,36.8,29.5,10.4,0000.0,0003.12,0001.34,0000.94
2022-11-26 00:49:00,,0828.3,5.01,0.00,27.8,26.2,00.0,36.8,29.4,10.4,0000.0,0003.06,0001.32,0000.93
2022-11-26 00:50:00,,0828.3,4.98,0.00,27.8,26.2,00.0,36.8,29.5,10.5,0000.0,0004.05,0001.32,0000.92
2022-11-26 00:51:00,,0828.3,5.01,0.00,27.7,26.2,00.0,36.8,29.4,10.5,0000.0,0004.39,0001.34,0000.91
2022-11-26 00:52:00,,0828.3,5.00,0.00,27.7,26.2,00.0,36.8,29.5,10.4,0000.0,0004.59,0001.31,0000.89
2022-11-26 00:53:00,,0828.3,4.99,0.00,27.7,26.2,00.0,36.8,29.5,10.4,0000.0,0005.13,0001.26,0000.88
2022-11-26 00:54:00,,0828.3,5.02,0.00,27.7,26.2,00.0,36.8,29.4,10.5,0000.0,0005.14,0001.27,0000.88
2022-11-26 00:55:00,,0828.3,4.98,0.00,27.7,26.2,00.0,36.7,29.4,10.5,0000.0,0005.20,0001.26,0000.86
2022-11-26 00:56:00,,0828.3,5.01,0.00,27.7,26.1,00.0,36.7,29.4,10.5,0000.0,0006.22,0001.24,0000.85
2022-11-26 00:57:00,,0828.3,4.99,0.00,27.7,26.1,00.0,36.7,29.5,10.4,0000.0,0005.53,0001.21,0000.85
2022-11-26 00:58:00,,0828.2,5.02,0.00,27.7,26.1,00.0,36.7,29.5,10.4,0000.0,0005.33,0001.20,0000.87
2022-11-26 00:59:00,,0828.2,4.99,0.00,27.7,26.1,00.0,36.7,29.4,10.4,0000.0,0005.51,0001.23,0000.88
